Regional Weather Roundup
Issued by NWS New Orleans/Baton Rouge, LA

Home | Current Version | Previous Version | Text Only | Print | Product List | Glossary On
Versions: 1 2 3 4 5 6 7 8 9 10 11 12 13 14 15 16 17 18 19 20 21 22 23 24 25 26 27 28 29 30 31 32 33 34 35 36 37 38 39 40 41 42 43 44 45 46 47 48 49 50
027
ASUS44 KLIX 010510
RWRLIX
NEW ORLEANS REGIONAL WEATHER ROUNDUP
NATIONAL WEATHER SERVICE NEW ORLEANS LA
1200 AM CDT MON SEP 01 2014

NOTE: "FAIR" INDICATES FEW OR NO CLOUDS BELOW 12,000 FEET WITH NO
      SIGNIFICANT WEATHER AND/OR OBSTRUCTIONS TO VISIBILITY.
      SKY/WX - SKY CONDITION AND SIGNIFICANT WEATHER.
      TMP - AIR TEMPERATURE.     DP    - DEWPOINT TEMPERATURE.
      RH  - RELATIVE HUMIDITY.   PRES  - PRESSURE.
      HI  - HEAT INDEX.          WCI   - WIND CHILL INDEX.

*  THESE STATIONS ARE NOT NWS OR FAA STATIONS AND ARE NOT UNDER
   NWS QUALITY CONTROL.

LAZ038-040-048-061>063-065>067-069-010600-
SOUTHEAST LOUISIANA

CITY           SKY/WX    TMP DP  RH WIND       PRES   REMARKS
N.O. AUDUBON     N/A     84  78  83 MISG        N/A  HX  95
N.O. INTL ARPT MOCLDY    82  75  79 SE10      30.03F
N.O. LAKEFRONT PTCLDY    82  77  84 SE8       30.05F
N.O. DOWNTOWN*   N/A     82  73  74 SE3       30.05S
SLIDELL        PTCLDY    80  75  84 SE6       30.04F
BATON ROUGE    CLEAR     79  74  84 E5        30.03S
BOOTHVILLE     CLEAR     83  78  85 SE7       30.05F
BELLE CHASSE   PTCLDY    83  75  77 SE6       30.04S
BOGALUSA*        N/A     78  74  87 CALM      30.06F
GALLIANO*      NOT AVBL
NEW ROADS*       N/A     78  75  91 CALM      30.02F
GONZALES*        N/A     80  79  99 SE3       30.02F
HAMMOND*       PTCLDY    77  73  88 CALM      30.05F
HOUMA*         PTCLDY    80  75  85 E5        30.03S
PORT FOURCHON* NOT AVBL

$$

MSZ070-080>082-010600-
SOUTHERN MISSISSIPPI

CITY           SKY/WX    TMP DP  RH WIND       PRES   REMARKS
MCCOMB         CLEAR     77  74  90 SE6       30.05F
GULFPORT       CLEAR     83  76  79 SE9       30.05F
BILOXI         PTCLDY    84  76  76 S7        30.06F
PASCAGOULA     MOCLDY    75  74  96 CALM      30.07S

$$

COASTAL OBSERVATIONS
LAKE AND NEARSHORE STATIONS

STATION/POSITION TIME  TEMP    WIND        PRES    WAVE
                       AIR SEA DIR/SP/G            HT/PER
                 (UTC) (F)     (DEG/KT/KT) (MB)    (FT/S)
PASCAGOULA       0500   85     150/  5/  8 1017.7
WAVELAND YACHT   0500   85     160/ 13/ 16 1017.1
GRAND ISLE       0500   85 85  140/ 12/ 16 1017.8
SOUTHWEST PASS   0500   85 90  140/ 14/ 18 1017.7
NEW CANAL        0500   82 82  130/  2/  6 1017.7
SHELL BEACH      0500   83 81  120/ 10/ 11 1017.4

OFFSHORE STATIONS

STATION/POSITION TIME  TEMP    WIND        PRES    WAVE
                       AIR SEA DIR/SP/G            HT/PER
                 (UTC) (F)     (DEG/KT/KT) (MB)    (FT/S)
64 S DAUPHIN ISL 0500   84 85  130/ 14     1018.1

$$




USA.gov is the U.S. government's official web portal to all federal, state and local government web resources and services.